DW4033 Weather Reports


Display with metric or nautical units.
time (UTC)temp
F
wind
direction
speed
MPH
gust
MPH
rain 1hr
in
rain 24hr
in
rain mn
in
humidity
%
barometer
mb
20181119181451 32 0 0.0 1.0 0.00 0.00 0.00 90 1020.2
20181119175953 32 0 0.0 0.0 0.00 0.00 0.00 89 1020.3
20181119174450 32 0 0.0 0.0 0.00 0.00 0.00 88 1020.1
20181119172953 32 0 0.0 0.0 0.00 0.00 0.00 87 1020.2
20181119171450 32 0 0.0 0.0 0.00 0.00 0.00 86 1019.9
20181119165952 32 0 0.0 0.0 0.00 0.00 0.00 85 1019.7
20181119164449 33 0 0.0 1.0 0.00 0.00 0.00 84 1019.7
20181119162952 33 1 0.0 11.0 0.00 0.00 0.00 84 1019.8
20181119161449 34 0 0.0 0.0 0.00 0.00 0.00 83 1019.4
20181119155951 34 0 0.0 8.0 0.00 0.00 0.00 83 1019.4
20181119154449 35 1 0.0 10.0 0.00 0.00 0.00 82 1019.5
20181119152951 35 0 0.0 1.0 0.00 0.00 0.00 82 1019.6
20181119151449 35 0 0.0 0.0 0.00 0.00 0.00 81 1019.3
20181119145951 35 0 0.0 4.0 0.00 0.00 0.00 81 1019.3
20181119144449 35 0 0.0 8.0 0.00 0.00 0.00 80 1019.1
20181119142950 36 1 0.0 12.0 0.00 0.00 0.00 80 1019.1
20181119141448 36 0 0.0 8.0 0.00 0.00 0.00 79 1019.1
20181119135950 37 1 0.0 14.0 0.00 0.00 0.00 78 1018.8
20181119134447 37 1 0.0 11.0 0.00 0.00 0.00 77 1018.9
20181119132950 37 1 0.0 14.0 0.00 0.00 0.00 77 1018.6
20181119131447 38 0 0.0 8.0 0.00 0.00 0.00 76 1018.6
20181119125950 38 0 0.0 11.0 0.00 0.00 0.00 76 1018.6
20181119124447 38 35 0.0 14.0 0.00 0.00 0.00 76 1018.6
20181119122949 37 355 0.0 11.0 0.00 0.00 0.00 76 1018.5
20181119121446 37 0 0.0 11.0 0.00 0.00 0.00 75 1018.6
20181119115949 37 0 0.0 10.0 0.00 0.00 0.00 75 1018.7
20181119114446 37 0 0.0 3.0 0.00 0.00 0.00 74 1018.6
20181119112948 37 0 0.0 11.0 0.00 0.00 0.00 75 1018.5
20181119111446 37 0 0.0 7.0 0.00 0.00 0.00 75 1018.7
20181119105948 37 1 0.0 14.0 0.00 0.00 0.00 74 1018.9
20181119104445 37 0 0.0 7.0 0.00 0.00 0.00 74 1018.8
20181119102947 37 27 1.0 14.0 0.00 0.00 0.00 74 1019.0
20181119101445 37 0 0.0 12.0 0.00 0.00 0.00 74 1018.9
20181119095948 36 47 1.0 15.0 0.00 0.00 0.00 74 1018.7
20181119094445 36 35 0.0 10.0 0.00 0.00 0.00 79 1018.8
20181119092947 35 0 0.0 1.0 0.00 0.00 0.00 81 1018.9
20181119091444 35 1 0.0 12.0 0.00 0.00 0.00 82 1018.7
20181119085946 34 0 0.0 1.0 0.00 0.00 0.00 83 1019.0
20181119084443 34 0 0.0 1.0 0.00 0.00 0.00 85 1019.0
20181119082946 33 0 0.0 6.0 0.00 0.00 0.00 86 1019.2
20181119081443 33 0 0.0 8.0 0.00 0.00 0.00 87 1019.0
20181119075946 33 1 0.0 11.0 0.00 0.00 0.00 88 1019.1
20181119074443 33 0 0.0 0.0 0.00 0.00 0.00 89 1018.7
20181119072945 32 0 0.0 6.0 0.00 0.00 0.00 90 1019.0
20181119071443 32 314 0.0 10.0 0.00 0.00 0.00 91 1018.9
20181119065945 31 0 0.0 6.0 0.00 0.00 0.00 91 1018.9
20181119064442 31 0 0.0 3.0 0.00 0.00 0.00 91 1018.9
20181119062944 31 0 0.0 7.0 0.00 0.00 0.00 91 1018.8
20181119061442 31 0 0.0 0.0 0.00 0.00 0.00 91 1018.8
20181119055944 31 0 0.0 1.0 0.00 0.00 0.00 91 1018.7
20181119054441 31 0 0.0 0.0 0.00 0.00 0.00 91 1018.7
20181119052944 31 0 0.0 1.0 0.00 0.00 0.00 91 1018.7
20181119051441 31 0 0.0 0.0 0.00 0.00 0.00 90 1018.8
20181119045943 31 0 0.0 0.0 0.00 0.00 0.00 89 1018.8
20181119044441 31 0 0.0 0.0 0.00 0.00 0.00 89 1018.6
20181119042943 31 0 0.0 1.0 0.00 0.00 0.00 89 1018.5
20181119041441 31 0 0.0 1.0 0.00 0.00 0.00 88 1018.5
20181119035942 31 0 0.0 0.0 0.00 0.00 0.00 88 1018.4
20181119034440 31 0 0.0 0.0 0.00 0.00 0.00 87 1018.3
20181119032942 31 0 0.0 0.0 0.00 0.00 0.00 87 1018.4
20181119031440 31 0 0.0 0.0 0.00 0.00 0.00 86 1018.6
20181119025942 31 0 0.0 0.0 0.00 0.00 0.00 85 1018.6
20181119024439 32 0 0.0 1.0 0.00 0.00 0.00 85 1018.8
20181119022942 32 0 0.0 0.0 0.00 0.00 0.00 84 1019.0
20181119021439 32 0 0.0 0.0 0.00 0.00 0.00 83 1019.2
20181119015941 32 0 0.0 0.0 0.00 0.00 0.00 83 1019.2
20181119014438 32 0 0.0 1.0 0.00 0.00 0.00 83 1019.4
20181119012941 32 0 0.0 1.0 0.00 0.00 0.00 83 1019.4
20181119011438 32 0 0.0 0.0 0.00 0.00 0.00 82 1019.7
20181119005940 32 0 0.0 0.0 0.00 0.00 0.00 81 1019.7
20181119004437 32 0 0.0 1.0 0.00 0.00 0.00 80 1020.2
20181119002939 33 0 0.0 3.0 0.00 0.00 0.00 79 1020.1
20181119001437 33 0 0.0 0.0 0.00 0.00 0.00 78 1020.1
20181118235939 33 0 0.0 0.0 0.00 0.00 0.00 77 1020.2
20181118234437 33 0 0.0 0.0 0.00 0.00 0.00 77 1020.1
20181118232939 33 0 0.0 0.0 0.00 0.00 0.00 76 1020.3
20181118231437 33 0 0.0 0.0 0.00 0.00 0.00 76 1020.4
20181118225939 33 0 0.0 1.0 0.00 0.00 0.00 76 1020.6
20181118224436 33 0 0.0 0.0 0.00 0.00 0.00 77 1020.5
20181118222938 33 0 0.0 0.0 0.00 0.00 0.00 79 1020.7
20181118221436 33 0 0.0 0.0 0.00 0.00 0.00 80 1020.8
20181118215940 33 0 0.0 0.0 0.00 0.00 0.00 81 1020.8
20181118214435 33 0 0.0 4.0 0.00 0.00 0.00 83 1020.9
20181118212938 33 0 0.0 1.0 0.00 0.00 0.00 83 1020.8
20181118211435 33 0 0.0 10.0 0.00 0.00 0.00 83 1021.1
20181118205937 33 0 0.0 6.0 0.00 0.00 0.00 82 1021.2
20181118204434 33 0 0.0 1.0 0.00 0.00 0.00 80 1021.4
20181118202937 33 313 0.0 10.0 0.00 0.00 0.00 79 1021.6
20181118201434 33 0 0.0 1.0 0.00 0.00 0.00 76 1021.7
20181118195937 33 0 0.0 7.0 0.00 0.00 0.00 76 1021.9
20181118194434 33 0 0.0 3.0 0.00 0.00 0.00 76 1022.1
20181118192936 33 0 0.0 0.0 0.00 0.00 0.00 76 1022.2
20181118191433 33 0 0.0 0.0 0.00 0.00 0.00 75 1022.4
20181118185936 33 0 0.0 3.0 0.00 0.00 0.00 75 1022.2
20181118184433 33 0 0.0 0.0 0.00 0.00 0.00 74 1022.2
20181118182935 33 0 0.0 0.0 0.00 0.00 0.00 76 1022.5